星链-35567(STARLINK-35567)

导读

STARLINK-35567是美国SpaceX星链星座的一颗卫星,于2025年11月15日发射升空,作为星链互联网星座组网卫星之一,它为全球偏远地区及高速互联网需求区域提供低延迟、高带宽的网络服务,进一步扩充星链星座规模,巩固美国低轨卫星互联网布局。

Basic Information
目录编号:
66472
目录名称:
STARLINK-35567
国际标识:
2025-262S
轨道中心:
EARTH
卫星名称:
星链-35567
卫星全名:
星链-35567(STARLINK-35567)
卫星状态:
在轨 (已飞行300 天)
发射日期:
2025-11-15 UTC
国别 :
美国 (US)
星等 :
--
This satellite is enrolled in the Space Conjunction Data Service (SCDS) and the current flight risk assessment level is: High Risk
Orbit Information
数据来源 国际轨道数据 AOE轨道数据
星历时间 2026-09-11T14:47:26+0800
8小时前
查看轨道信息
2026-09-07T06:00:00+0800
4天前
查看轨道信息
半长轴 6861.173km 6861.174km
偏心率 0.0001478 0.000171
轨道倾角 43.000° 43.003°
近地点辐角 259.375° 275.217°
升交点赤经 327.763° 352.425°
平近点角 100.693° 165.329°
近地点 482.021km 481.863km
远地点 484.051km 484.211km
周期 94.266分钟 94.266分钟
每日圈数 15.275845 15.275842
Detailed Information
固有亮度:
5
最大亮度:
2.5
卫星平台:
Starlink V1.0
覆盖范围:
全球
运营商:
太空探索技术公司
运营商所在国:
美国
制造商(研发单位):
太空探索技术公司
制造商所在国:
美国
使用方式:
暂无
Satellite Introduction
Starlink 计划是 SpaceX 推出的全球卫星互联网项目,通过发射低轨道卫星,为全球尤其是偏远地区提供高速、低延迟的互联网服务。自 2019 年起,Starlink 已部署数千颗卫星,旨在缩小全球数字鸿沟,推动互联网普及。该项目还为军事、航空等行业提供通信支持,带来广泛经济效益。
2D Orbit Map
3D Orbit Map
Orbit Altitude Analysis Chart
Orbit Inclination Analysis Chart
Orbit Comprehensive Analysis Chart
View Comprehensive Chart
Conjunction Data List
Event ID Objects TCA Miss Dist (km) Collision Risk Probability Collision Risk Index (CRI) Action
CDM_260912-133605-637506-647222
2026-09-12T
13:36:22+0000
0.056 km
近距离
1.356592E-3 极高风险 0.98
CDM_260913-115205-958006-647221
2026-09-13T
11:52:24+0000
0.228 km
中距离
5.117575E-4 高风险 0.89
CDM_260912-213605-711906-647221
2026-09-12T
21:36:17+0000
0.417 km
远距离
8.373115E-5 中风险 0.73
CDM_260912-055006-185306-647221
2026-09-12T
05:50:20+0000
0.604 km
远距离
6.48957E-5 中风险 0.71
CDM_260913-025605-637506-647222
2026-09-13T
02:56:41+0000
0.809 km
远距离
3.552289E-5 中风险 0.66
CDM_260910-033205-637506-647221
2026-09-10T
03:32:35+0000
0.840 km
远距离
3.135402E-5 中风险 0.65
CDM_260913-065905-849106-647221
2026-09-13T
06:59:48+0000
0.678 km
远距离
2.979335E-5 中风险 0.64
CDM_260910-073206-185306-647221
2026-09-10T
07:32:41+0000
0.808 km
远距离
2.63637E-5 中风险 0.63
CDM_260910-051505-711906-647223
2026-09-10T
05:15:54+0000
0.665 km
远距离
2.159801E-5 中风险 0.62
CDM_260910-073705-711906-647223
2026-09-10T
07:37:07+0000
0.691 km
远距离
1.90948E-5 中风险 0.61
Miss Distance Evolution Trend with All Objects
Collision Probability Evolution Trend with All Objects